This demonstration page uses our WeatherBlox Daily Observations layout. Learn more.

Left ArrowRight Arrow

47.50024, -111.30081

Hourly Observations for May 1, 2015

Temp ( °F °C ) Dew Point ( °F °C ) Humidity (%) Winds ( mph kmh ) Pressure ( in mb ) Visibility ( mi km ) Precip ( " mm )
12:53 am 00:53 Clear 48 8.9 25 -3.9 41 41 SSW 8 13 29.99 1016 10 16 0.00 0.00
1:53 am 01:53 Clear 47 8.3 25 -3.9 42 42 WSW 6 9 29.99 1016 10 16 0.00 0.00
2:53 am 02:53 Clear 45 7.2 26 -3.3 48 48 SW 12 19 29.99 1016 10 16 0.00 0.00
3:53 am 03:53 Clear 46 7.8 26 -3.3 46 46 SW 13 20 29.98 1015 10 16 0.00 0.00
4:53 am 04:53 Clear 47 8.3 25 -3.9 42 42 SW 8 13 29.98 1015 10 16 0.00 0.00
5:53 am 05:53 Clear 49 9.4 25 -3.9 39 39 SW 10 17 29.97 1015 10 16 0.00 0.00
6:53 am 06:53 Sunny 48 8.9 25 -3.9 41 41 SW 13 20 29.98 1015 10 16 0.00 0.00
7:53 am 07:53 Sunny 52 11.1 26 -3.3 37 37 SSW 13 20 29.98 1015 10 16 0.00 0.00
8:53 am 08:53 Sunny 53 11.7 27 -2.8 37 37 SSW 8 13 29.98 1015 10 16 0.00 0.00
9:53 am 09:53 Sunny 56 13.3 30 -1.1 37 37 SSW 7 11 29.97 1015 10 16 0.00 0.00
10:53 am 10:53 Sunny 61 16.1 26 -3.3 26 26 SW 23 37 29.94 1014 10 16 0.00 0.00
11:53 am 11:53 Sunny 63 17.2 25 -3.9 24 24 SW 22 35 29.92 1013 10 16 0.00 0.00
12:53 pm 12:53 Sunny 63 17.2 25 -3.9 24 24 SSW 20 31 29.90 1013 10 16 0.00 0.00
1:53 pm 13:53 Sunny 69 20.6 25 -3.9 19 19 SSW 18 30 29.85 1011 10 16 0.00 0.00
2:53 pm 14:53 Sunny 70 21.1 22 -5.6 16 16 WSW 25 41 29.81 1010 10 16 0.00 0.00
3:53 pm 15:53 Sunny 70 21.1 20 -6.7 15 15 SW 25 41 29.78 1009 10 16 0.00 0.00
4:53 pm 16:53 Mostly Cloudy 73 22.8 21 -6.1 14 14 WSW 24 39 29.75 1008 10 16 0.00 0.00
5:53 pm 17:53 Partly Cloudy 70 21.1 23 -5 17 17 SW 18 30 29.75 1008 10 16 0.00 0.00
6:53 pm 18:53 Sunny 69 20.6 22 -5.6 17 17 WSW 23 37 29.74 1007 10 16 0.00 0.00
7:53 pm 19:53 Sunny 62 16.7 24 -4.4 23 23 WSW 13 20 29.75 1007 10 16 0.00 0.00
8:53 pm 20:53 Clear 58 14.4 24 -4.4 27 27 WSW 14 22 29.75 1008 10 16 0.00 0.00
9:53 pm 21:53 Clear 55 12.8 23 -5 29 29 WSW 13 20 29.77 1008 10 16 0.00 0.00
10:53 pm 22:53 Clear 54 12.2 24 -4.4 31 31 WSW 14 22 29.75 1008 10 16 0.00 0.00
11:53 pm 23:53 Clear 55 12.8 23 -5 29 29 SW 16 26 29.74 1007 10 16 0.00 0.00

Powered by AerisWeather